Overview Statistics Trail Chart Weather Telemetry Raw packets
 

This is the latest recevied weather packets stored in our database for station/object K9MWD. If no packets are shown the sender has not sent any weather packets the latest 10 day(s).

<< 74 75 76 77 78 79 80 >>
Time Temp. Humidity Pressure Rain* Wind** Luminosity Snow
1788102496 30.56° C 62% 1017.6 hPa 0 mm - 513 W/m² -
1788102195 30.56° C 61% 1017.5 hPa 0 mm - 496 W/m² -
1788101895 30° C 62% 1017.3 hPa 0 mm - 478 W/m² -
1788101590 30.56° C 62% 1017.5 hPa 0 mm - 461 W/m² -
1788101285 30.56° C 62% 1017.4 hPa 0 mm - 447 W/m² -
1788100981 29.44° C 65% 1017.4 hPa 0 mm - 428 W/m² -
1788100677 30° C 65% 1017.5 hPa 0 mm - 412 W/m² -
1788100376 29.44° C 67% 1017.5 hPa 0 mm - 395 W/m² -
1788100071 29.44° C 67% 1017.6 hPa 0 mm - 377 W/m² -
1788099766 28.89° C 68% 1017.4 hPa 0 mm - 356 W/m² -
1788099475 28.89° C 68% 1017.4 hPa 0 mm - 338 W/m² -
1788099157 28.89° C 70% 1017.4 hPa 0 mm - 323 W/m² -
1788098857 28.33° C 70% 1017.3 hPa 0 mm - 99 W/m² -
1788098552 28.33° C 71% 1017.2 hPa 0 mm - 277 W/m² -
1788098246 28.89° C 71% 1017.5 hPa 0 mm - 260 W/m² -
1788097942 28.33° C 72% 1017.4 hPa 0 mm - 89 W/m² -
1788097638 27.78° C 73% 1017.5 hPa 0 mm - 226 W/m² -
1788097332 27.78° C 72% 1017.3 hPa 0 mm - 208 W/m² -
1788097028 27.78° C 72% 1017.4 hPa 0 mm - 192 W/m² -
1788096724 27.78° C 73% 1017.4 hPa 0 mm - 178 W/m² -
1788096419 27.78° C 74% 1017.4 hPa 0 mm - 158 W/m² -
1788096115 27.22° C 75% 1017.3 hPa 0 mm - 144 W/m² -
1788095814 26.67° C 75% 1017.3 hPa 0 mm - 128 W/m² -
1788095508 26.67° C 76% 1017.2 hPa 0 mm - 115 W/m² -
1788095209 26.67° C 76% 1017.2 hPa 0 mm - 101 W/m² -

* Rain latest hour (hover to see other rain measurements)
** Current wind speed in m/s (hover to see current wind gust speed)